TimeEDT,TemperatureF,Dew PointF,Humidity,Sea Level PressureIn,VisibilityMPH,Wind Direction,Wind SpeedMPH,Gust SpeedMPH,PrecipitationIn,Events,Conditions,WindDirDegrees,DateUTC
12:15 AM,37.4,33.8,87,29.82,10.0,Calm,Calm,-,N/A,,Overcast,0,2012-11-01 04:15:00
12:35 AM,39.2,33.8,81,29.82,10.0,Calm,Calm,-,N/A,,Overcast,0,2012-11-01 04:35:00
12:55 AM,37.4,35.6,93,29.82,10.0,Calm,Calm,-,N/A,,Overcast,0,2012-11-01 04:55:00
1:15 AM,37.4,35.6,93,29.82,10.0,Calm,Calm,-,N/A,,Overcast,0,2012-11-01 05:15:00
1:35 AM,41.0,33.8,76,29.82,10.0,WNW,3.5,-,N/A,,Overcast,300,2012-11-01 05:35:00
1:55 AM,41.0,33.8,76,29.82,10.0,Calm,Calm,-,N/A,,Overcast,0,2012-11-01 05:55:00
2:15 AM,41.0,33.8,76,29.82,10.0,NNW,4.6,-,N/A,,Overcast,330,2012-11-01 06:15:00
2:35 AM,42.8,32.0,66,29.82,10.0,NW,5.8,-,N/A,,Overcast,320,2012-11-01 06:35:00
2:55 AM,42.8,32.0,66,29.83,10.0,NW,8.1,-,N/A,,Overcast,320,2012-11-01 06:55:00
3:15 AM,42.8,32.0,66,29.83,10.0,NW,6.9,-,N/A,,Overcast,310,2012-11-01 07:15:00
3:35 AM,42.8,32.0,66,29.83,10.0,NW,8.1,-,N/A,,Overcast,320,2012-11-01 07:35:00
3:55 AM,42.8,32.0,66,29.83,10.0,NW,10.4,-,N/A,,Overcast,310,2012-11-01 07:55:00
4:15 AM,42.8,32.0,66,29.82,10.0,WNW,8.1,-,N/A,,Overcast,300,2012-11-01 08:15:00
4:35 AM,42.8,32.0,66,29.83,10.0,WNW,4.6,-,N/A,,Overcast,300,2012-11-01 08:35:00
5:15 AM,42.8,32.0,66,29.82,10.0,WNW,8.1,19.6,N/A,,Overcast,300,2012-11-01 09:15:00
5:35 AM,42.8,32.0,66,29.82,10.0,WNW,13.8,23.0,N/A,,Overcast,300,2012-11-01 09:35:00
5:55 AM,42.8,32.0,66,29.82,10.0,NW,9.2,-,N/A,,Overcast,310,2012-11-01 09:55:00
6:15 AM,42.8,32.0,66,29.82,10.0,NW,10.4,17.3,N/A,,Overcast,310,2012-11-01 10:15:00
6:35 AM,42.8,32.0,66,29.82,10.0,NW,9.2,17.3,N/A,,Overcast,310,2012-11-01 10:35:00
6:55 AM,42.8,32.0,66,29.82,10.0,WNW,10.4,16.1,N/A,,Overcast,290,2012-11-01 10:55:00
7:15 AM,42.8,32.0,66,29.83,10.0,West,3.5,-,N/A,,Overcast,280,2012-11-01 11:15:00
7:35 AM,42.8,32.0,66,29.83,10.0,NW,4.6,-,N/A,,Overcast,320,2012-11-01 11:35:00
7:55 AM,42.8,32.0,66,29.84,10.0,NW,3.5,-,N/A,,Overcast,320,2012-11-01 11:55:00
8:35 AM,42.8,32.0,66,29.85,10.0,NW,6.9,-,N/A,,Overcast,320,2012-11-01 12:35:00
8:55 AM,44.6,32.0,61,29.85,10.0,West,6.9,18.4,N/A,,Overcast,280,2012-11-01 12:55:00
9:15 AM,44.6,32.0,61,29.85,10.0,NW,13.8,19.6,N/A,,Overcast,310,2012-11-01 13:15:00
9:35 AM,44.6,32.0,61,29.86,10.0,NW,11.5,17.3,N/A,,Overcast,310,2012-11-01 13:35:00
9:55 AM,44.6,32.0,61,29.87,10.0,NNW,5.8,19.6,N/A,,Overcast,330,2012-11-01 13:55:00
10:15 AM,44.6,32.0,61,29.87,10.0,NW,13.8,23.0,N/A,,Overcast,310,2012-11-01 14:15:00
10:35 AM,44.6,32.0,61,29.88,10.0,West,8.1,20.7,N/A,,Overcast,280,2012-11-01 14:35:00
10:55 AM,46.4,32.0,57,29.88,10.0,WNW,10.4,16.1,N/A,,Overcast,290,2012-11-01 14:55:00
11:15 AM,46.4,32.0,57,29.88,10.0,NW,9.2,18.4,N/A,,Overcast,310,2012-11-01 15:15:00
11:35 AM,46.4,32.0,57,29.88,10.0,WNW,9.2,16.1,N/A,,Overcast,300,2012-11-01 15:35:00
11:55 AM,48.2,32.0,54,29.88,10.0,NNW,9.2,-,N/A,,Overcast,330,2012-11-01 15:55:00
12:15 PM,50.0,32.0,50,29.88,10.0,NW,6.9,23.0,N/A,,Mostly Cloudy,310,2012-11-01 16:15:00
12:35 PM,50.0,33.8,54,29.87,10.0,West,9.2,-,N/A,,Mostly Cloudy,260,2012-11-01 16:35:00
12:55 PM,50.0,32.0,50,29.86,10.0,WNW,10.4,16.1,N/A,,Mostly Cloudy,290,2012-11-01 16:55:00
1:15 PM,51.8,32.0,47,29.85,10.0,WNW,9.2,20.7,N/A,,Scattered Clouds,300,2012-11-01 17:15:00
1:35 PM,51.8,32.0,47,29.84,10.0,NW,12.7,18.4,N/A,,Clear,310,2012-11-01 17:35:00
1:55 PM,51.8,32.0,47,29.84,10.0,WNW,6.9,19.6,N/A,,Scattered Clouds,290,2012-11-01 17:55:00
2:15 PM,51.8,32.0,47,29.85,10.0,NW,11.5,21.9,N/A,,Scattered Clouds,320,2012-11-01 18:15:00
2:35 PM,51.8,33.8,50,29.85,10.0,NW,13.8,17.3,N/A,,Clear,320,2012-11-01 18:35:00
2:55 PM,51.8,32.0,47,29.85,10.0,WNW,11.5,18.4,N/A,,Clear,300,2012-11-01 18:55:00
3:15 PM,51.8,32.0,47,29.85,10.0,WNW,8.1,21.9,N/A,,Scattered Clouds,300,2012-11-01 19:15:00
3:35 PM,51.8,32.0,47,29.85,10.0,NNW,10.4,18.4,N/A,,Scattered Clouds,330,2012-11-01 19:35:00
3:55 PM,51.8,32.0,47,29.85,10.0,NW,11.5,-,N/A,,Clear,310,2012-11-01 19:55:00
4:35 PM,51.8,32.0,47,29.84,10.0,WNW,5.8,-,N/A,,Clear,290,2012-11-01 20:35:00
4:55 PM,51.8,30.2,44,29.84,10.0,West,3.5,-,N/A,,Clear,270,2012-11-01 20:55:00
5:15 PM,51.8,32.0,47,29.84,10.0,Calm,Calm,-,N/A,,Clear,0,2012-11-01 21:15:00
5:35 PM,51.8,30.2,44,29.85,10.0,WNW,4.6,-,N/A,,Clear,290,2012-11-01 21:35:00
5:55 PM,51.8,28.4,41,29.85,10.0,Calm,Calm,-,N/A,,Clear,0,2012-11-01 21:55:00
6:15 PM,50.0,30.2,47,29.86,10.0,WSW,3.5,-,N/A,,Clear,240,2012-11-01 22:15:00
6:35 PM,48.2,28.4,46,29.86,10.0,Calm,Calm,-,N/A,,Clear,0,2012-11-01 22:35:00
6:55 PM,48.2,26.6,43,29.87,10.0,Calm,Calm,-,N/A,,Clear,0,2012-11-01 22:55:00
7:15 PM,44.6,28.4,53,29.88,10.0,Calm,Calm,-,N/A,,Clear,0,2012-11-01 23:15:00
7:35 PM,42.8,28.4,57,29.88,10.0,SW,5.8,-,N/A,,Clear,230,2012-11-01 23:35:00
7:55 PM,44.6,26.6,49,29.88,10.0,Calm,Calm,-,N/A,,Clear,0,2012-11-01 23:55:00
8:15 PM,44.6,26.6,49,29.88,10.0,West,3.5,-,N/A,,Clear,260,2012-11-02 00:15:00
8:35 PM,44.6,24.8,46,29.88,10.0,West,3.5,-,N/A,,Clear,260,2012-11-02 00:35:00
8:55 PM,44.6,24.8,46,29.88,10.0,Calm,Calm,-,N/A,,Clear,0,2012-11-02 00:55:00
9:15 PM,42.8,24.8,49,29.89,10.0,West,3.5,-,N/A,,Clear,270,2012-11-02 01:15:00
9:55 PM,42.8,23.0,46,29.91,10.0,West,3.5,-,N/A,,Clear,280,2012-11-02 01:55:00
10:15 PM,42.8,23.0,46,29.91,10.0,West,3.5,-,N/A,,Clear,270,2012-11-02 02:15:00
10:35 PM,42.8,23.0,46,29.91,10.0,Calm,Calm,-,N/A,,Clear,0,2012-11-02 02:35:00
10:55 PM,42.8,21.2,42,29.91,10.0,Calm,Calm,-,N/A,,Clear,0,2012-11-02 02:55:00
11:15 PM,42.8,21.2,42,29.92,10.0,West,3.5,-,N/A,,Clear,270,2012-11-02 03:15:00
11:35 PM,41.0,21.2,45,29.91,10.0,Calm,Calm,-,N/A,,Clear,0,2012-11-02 03:35:00
11:55 PM,41.0,23.0,49,29.91,10.0,Calm,Calm,-,N/A,,Clear,0,2012-11-02 03:55:00